Location: Cieszkowy
(50.3290°N, 20.5336°E)
Time: 23:51:29
(UTC+00:00)

SAR-Lupe-4 - Pass Details

Date: 15 June 2024
Orbit: 476 x 482 km, 98.1° (Epoch: 02 April)

Event Time Altitude Azimuth Distance (km) Brightness Sun altitude
Rises 01:21:06 0° 19° (NNE) 2,550 8.9 -8.0°
Reaches altitude 10° 01:23:14 10° 25° (NNE) 1,665 7.9 -7.8°
Maximum altitude 01:26:41 46° 100° (E) 654 4.5 -7.5°
Drops below altitude 10° 01:30:07 10° 175° (S) 1,648 5.8 -7.2°
Enters shadow 01:31:29 - 180° (S) 2,219 6.4 -7.0°
